San Antonio Stinson, TX

3:14 PM CDT on June 27, 2017 (GMT -0500)
Stinson Municipal

Weather History for KSSF - November, 2012

Change the Weather History Date:

Sunday, November 25, 2012

  Actual Average Record
Temperature  
Mean Temperature 57 °F -  
Max Temperature 73 °F 66 °F 84 °F (2010)
Min Temperature 41 °F 47 °F 30 °F (2003)
Degree Days  
Heating Degree Days 8    
Growing Degree Days 7 (Base 50)    
Moisture  
Dew Point 49 °F    
Average Humidity 70    
Maximum Humidity 90    
Minimum Humidity 47    
Precipitation  
Precipitation 0.00 in - - ()
Sea Level Pressure  
Sea Level Pressure 30.04 in    
Wind  
Wind Speed 3 mph (South)    
Max Wind Speed 14 mph    
Max Gust Speed 20 mph    
Visibility 10 miles    
Events      
Averages and records for this station are not official NWS values.
T = Trace of Precipitation, MM = Missing Value Source: NWS Daily Summary

Daily Weather History Graph

Daily Weather History Graph

Search for Another Location

Airport or City:

Trip Planner

Search our weather history database for the weather conditions in past years. The results will help you decide how hot, cold, wet, or windy it might be!

Date:

Astronomy

Nov. 25, 2012 Rise Set
Actual Time 7:06 AM CST 5:35 PM CST
Civil Twilight 6:40 AM CST 6:01 PM CST
Nautical Twilight 6:11 AM CST 6:30 PM CST
Astronomical Twilight 5:42 AM CST 6:58 PM CST
Moon 3:46 PM CST (11/25) 4:30 AM CST (11/25)
Length of Visible Light 11h 20m
Length of Day
10h 29m
Waxing Gibbous, 93% of the Moon is Illuminated
Nov 25
Waxing Gibbous
Nov 28
Full
Dec 6
Last Quarter
Dec 13
New
Dec 19
First Quarter

Hourly Weather History & Observations

Time (CST) Temp. Dew Point Humidity Pressure Visibility Wind Dir Wind Speed Gust Speed Precip Events Conditions
12:53 AM 45.0 °F 36.0 °F 71% 30.15 in 10.0 mi Calm Calm - N/A   Clear
1:53 AM 44.1 °F 36.0 °F 73% 30.14 in 10.0 mi Calm Calm - N/A   Clear
2:53 AM 44.1 °F 35.1 °F 71% 30.12 in 10.0 mi Calm Calm - N/A   Clear
3:53 AM 43.0 °F 37.0 °F 80% 30.11 in 10.0 mi Calm Calm - N/A   Clear
4:53 AM 41.0 °F 37.0 °F 86% 30.09 in 10.0 mi Calm Calm - N/A   Clear
5:53 AM 44.1 °F 37.9 °F 79% 30.09 in 10.0 mi Calm Calm - N/A   Clear
6:53 AM 43.0 °F 37.9 °F 82% 30.10 in 10.0 mi Calm Calm - N/A   Clear
7:53 AM 45.0 °F 39.9 °F 82% 30.12 in 10.0 mi Calm Calm - N/A   Clear
8:53 AM 55.0 °F 42.1 °F 62% 30.12 in 10.0 mi SW 3.5 mph - N/A   Clear
9:53 AM 60.1 °F 43.0 °F 53% 30.12 in 10.0 mi WSW 4.6 mph - N/A   Clear
10:42 AM 64.4 °F 46.4 °F 52% 30.10 in 10.0 mi South 5.8 mph - N/A   Mostly Cloudy
10:53 AM 64.0 °F 48.0 °F 56% 30.10 in 10.0 mi South 4.6 mph - N/A   Overcast
11:21 AM 68.0 °F 48.2 °F 49% 30.08 in 10.0 mi SSW 12.7 mph - N/A   Scattered Clouds
11:53 AM 68.0 °F 50.0 °F 52% 30.07 in 10.0 mi SSW 8.1 mph 18.4 mph N/A   Clear
12:53 PM 71.1 °F 50.0 °F 47% 30.02 in 10.0 mi SSW 13.8 mph 19.6 mph N/A   Clear
1:53 PM 73.9 °F 53.1 °F 48% 29.98 in 10.0 mi South 10.4 mph 18.4 mph N/A   Clear
2:53 PM 72.0 °F 55.9 °F 57% 29.96 in 10.0 mi South 12.7 mph 18.4 mph 0.00 in   Scattered Clouds
3:53 PM 71.1 °F 57.0 °F 61% 29.95 in 10.0 mi South 6.9 mph - N/A   Mostly Cloudy
4:53 PM 71.1 °F 57.0 °F 61% 29.94 in 10.0 mi South 8.1 mph - N/A   Overcast
5:53 PM 68.0 °F 57.9 °F 70% 29.94 in 10.0 mi SSE 9.2 mph - N/A   Mostly Cloudy
6:53 PM 64.9 °F 57.9 °F 78% 29.95 in 10.0 mi South 3.5 mph - N/A   Partly Cloudy
7:53 PM 63.0 °F 57.9 °F 84% 29.96 in 10.0 mi South 3.5 mph - N/A   Mostly Cloudy
8:33 PM 64.4 °F 57.2 °F 77% 29.97 in 10.0 mi Calm Calm - N/A   Mostly Cloudy
8:53 PM 64.0 °F 57.9 °F 80% 29.97 in 10.0 mi Calm Calm - N/A   Overcast
9:53 PM 62.1 °F 57.9 °F 86% 29.97 in 10.0 mi ESE 3.5 mph - N/A   Overcast
10:53 PM 62.1 °F 57.9 °F 86% 29.97 in 10.0 mi Calm Calm - N/A   Overcast
11:46 PM 60.8 °F 57.2 °F 88% 29.97 in 10.0 mi Calm Calm - N/A   Scattered Clouds
11:53 PM 60.1 °F 57.0 °F 90% 29.96 in 10.0 mi Calm Calm - N/A   Scattered Clouds